Location: Beaurecueil
(43.5122°N, 5.5450°E)
Time: 14:41:00
(UTC+00:00)

Cosmos 1634 Rocket - Pass Details

Date: 18 September 2020
Orbit: 961 x 991 km, 82.9° (Epoch: 30 October)

Event Time Altitude Azimuth Distance (km) Brightness Sun altitude
Exits shadow 19:34:22 37° 104° (ESE) 1,449 4.4 -20.6°
Maximum altitude 19:35:04 38° 88° (E) 1,422 4.4 -20.7°
Drops below altitude 10° 19:40:42 10° 23° (NNE) 2,711 6.3 -21.7°
Sets 19:43:22 0° 16° (NNE) 3,666 7.1 -22.1°
